Location: Newark
(47.5833°N, 8.1500°E)
Time: 23:30:17
(UTC+00:00)

Vanguard 1 - Pass Details

Date: 31 October 2020
Orbit: 650 x 3833 km, 34.2° (Epoch: 29 November)

Event Time Altitude Azimuth Distance (km) Brightness Sun altitude
Rises 12:38:59 0° 245° (WSW) 7,403 15.2 25.0°
Reaches altitude 10° 12:43:47 10° 241° (WSW) 6,624 15.3 24.7°
Maximum altitude 13:05:45 55° 173° (S) 4,226 14.1 23.0°
Drops below altitude 10° 13:24:35 10° 103° (ESE) 5,792 13.8 21.2°
Sets 13:28:25 0° 99° (E) 6,468 14.0 20.9°
